Find OneWeb SL0619

NORAD ID: 55160 Int'l Des: 2023-004 Owner: ONEWEBN Country: UK Constellation: oneweb operational
LEOCIRCULARPOLARONEWEB_TYPE

現在のビュー

3D地球を読み込み中...

About OneWeb SL0619

OneWeb SL0619 (NORAD 55160) is a oneweb constellation satellite launched Jan 10, 2023 by ONEWEBN of UK. It operates in LEO, CIRCULAR, POLAR, ONEWEB_TYPE orbit with a mass of 148.00 kg.

OneWeb SL0619について

説明を読み込み中...

次回通過

Passes for default location (London). Set your location on the main map for personalized predictions.

高度履歴

Loading altitude history...

軌道要素

1 55160U 23004W 26171.28848267 .00000016 00000-0 86222-5 0 9990
2 55160 87.9142 5.2314 0001855 77.0842 283.0497 13.17648520168007
Epoch: Jun 20, 2026 • Age: 32 hours

現在のステータス

高度 1223.9 km
速度 7.24 km/s
衛星直下点 -87.18°S, 93.64°E
打ち上げ日 Jan 10, 2023
運用期間 3.4 years
タイプ internet

技術仕様

分類 Payload
質量 148.00 kg
乾燥質量 140.00 kg
総質量 148.00 kg
長さ 1.30 m
直径 1.00 m
スパン 5.00 m
形状 Trapezoid+2 pan
製造者 ONEWUS
バスタイプ ARROW
フェーズステータス In Orbit
所有者/国 ONEWEBN/UK

Most Searched